Вернуться в каталог

FENGYUN 1C DEB

АктивенPO
NORAD 33640·DEBRIS·🇨🇳 China

Запущен May 10, 1999 с Taiyuan Satellite Launch Center

Loading…

Ближайшие Пролёты (ближайшие 24 часа)

TLE

СвежийSource: Space-Track

Эпоха: Sep 12, 2026, 08:29 UTC

1 33640U 99025DDZ 26255.35400125  .00001231  00000-0  33590-3 0  9991
2 33640  98.8695 215.3923 0090457  60.9863 300.0355 14.46888148962987

Отслеживайте FENGYUN 1C DEB в реальном времени с AllMySat

Download on the App Store